| time (UTC) | temp C | wind direction | speed KPH | gust KPH | rain 1hr cm | rain 24hr cm | rain mn cm | humidity % | barometer mb |
| 20260506201551 | 12 | 326 | 20.9 | 29.0 | 0.10 | 1.65 | 1.65 | 93 | 1005.1 |
| 20260506200055 | 12 | 332 | 19.3 | 29.0 | 0.08 | 1.63 | 1.63 | 95 | 1004.9 |
| 20260506194550 | 14 | 360 | 12.9 | 22.5 | 0.00 | 1.55 | 1.55 | 95 | 1004.8 |
| 20260506193050 | 15 | 225 | 1.6 | 4.8 | 0.00 | 1.55 | 1.55 | 96 | 1004.8 |
| 20260506191546 | 15 | 169 | 3.2 | 6.4 | 0.03 | 1.55 | 1.55 | 96 | 1004.8 |
| 20260506190049 | 15 | 164 | 4.8 | 9.7 | 0.10 | 1.55 | 1.55 | 96 | 1004.7 |
| 20260506184548 | 15 | 166 | 3.2 | 8.0 | 0.15 | 1.55 | 1.55 | 96 | 1005.0 |
| 20260506183045 | 14 | 184 | 6.4 | 9.7 | 0.23 | 1.55 | 1.55 | 96 | 1005.0 |
| 20260506181548 | 13 | 171 | 3.2 | 8.0 | 0.23 | 1.52 | 1.52 | 96 | 1005.2 |
| 20260506180040 | 13 | 171 | 0.0 | 3.2 | 0.18 | 1.42 | 1.42 | 96 | 1005.4 |
| 20260506174540 | 14 | 171 | 0.0 | 4.8 | 0.18 | 1.37 | 1.37 | 96 | 1005.4 |
| 20260506173044 | 13 | 171 | 0.0 | 3.2 | 0.23 | 1.32 | 1.32 | 96 | 1005.3 |
| 20260506171537 | 13 | 171 | 0.0 | 3.2 | 0.25 | 1.30 | 1.30 | 95 | 1005.4 |
| 20260506170026 | 13 | 171 | 0.0 | 1.6 | 0.25 | 1.24 | 1.24 | 95 | 1005.7 |
| 20260506164538 | 13 | 171 | 0.0 | 1.6 | 0.23 | 1.17 | 1.17 | 95 | 1005.9 |
| 20260506163016 | 13 | 171 | 0.0 | 1.6 | 0.23 | 1.09 | 1.09 | 95 | 1006.1 |
| 20260506161517 | 13 | 171 | 0.0 | 3.2 | 0.25 | 1.04 | 1.04 | 95 | 1006.0 |
| 20260506160013 | 12 | 171 | 0.0 | 1.6 | 0.25 | 0.99 | 0.99 | 95 | 1006.4 |
| 20260506154512 | 13 | 171 | 0.0 | 1.6 | 0.25 | 0.94 | 0.94 | 94 | 1006.4 |
| 20260506153010 | 12 | 171 | 0.0 | 3.2 | 0.25 | 0.86 | 0.86 | 94 | 1006.8 |
| 20260506151508 | 12 | 171 | 0.0 | 3.2 | 0.23 | 0.79 | 0.79 | 94 | 1006.9 |
| 20260506150008 | 12 | 171 | 0.0 | 1.6 | 0.25 | 0.71 | 0.71 | 93 | 1007.0 |
| 20260506144511 | 12 | 171 | 0.0 | 1.6 | 0.25 | 0.69 | 0.69 | 94 | 1007.2 |
| 20260506143007 | 12 | 171 | 0.0 | 3.2 | 0.25 | 0.61 | 0.61 | 94 | 1007.6 |
| 20260506141522 | 12 | 171 | 0.0 | 0.0 | 0.25 | 0.56 | 0.56 | 93 | 1007.8 |
| 20260506140005 | 12 | 171 | 0.0 | 0.0 | 0.23 | 0.48 | 0.48 | 93 | 1007.9 |
| 20260506134504 | 12 | 171 | 0.0 | 0.0 | 0.23 | 0.43 | 0.43 | 93 | 1007.7 |
| 20260506133005 | 12 | 171 | 0.0 | 0.0 | 0.18 | 0.36 | 0.36 | 92 | 1007.7 |
| 20260506131507 | 12 | 171 | 0.0 | 0.0 | 0.18 | 0.30 | 0.30 | 92 | 1007.3 |
| 20260506130004 | 12 | 171 | 0.0 | 0.0 | 0.18 | 0.25 | 0.25 | 91 | 1007.5 |
| 20260506124502 | 12 | 171 | 0.0 | 1.6 | 0.15 | 0.20 | 0.20 | 92 | 1007.3 |
| 20260506123004 | 12 | 171 | 0.0 | 0.0 | 0.13 | 0.18 | 0.18 | 92 | 1007.8 |
| 20260506121602 | 11 | 171 | 0.0 | 1.6 | 0.08 | 0.13 | 0.13 | 91 | 1008.1 |
| 20260506120110 | 12 | 286 | 0.0 | 4.8 | 0.03 | 0.08 | 0.08 | 91 | 1008.3 |
| 20260506114559 | 12 | 180 | 0.0 | 3.2 | 0.00 | 0.05 | 0.05 | 90 | 1007.9 |
| 20260506113058 | 12 | 247 | 3.2 | 8.0 | 0.00 | 0.05 | 0.05 | 89 | 1007.7 |
| 20260506111558 | 12 | 212 | 1.6 | 8.0 | 0.00 | 0.05 | 0.05 | 89 | 1007.6 |
| 20260506110112 | 12 | 46 | 0.0 | 4.8 | 0.00 | 0.13 | 0.05 | 88 | 1007.6 |
| 20260506104612 | 12 | 61 | 0.0 | 9.7 | 0.00 | 0.13 | 0.05 | 88 | 1007.8 |
| 20260506103055 | 12 | 329 | 4.8 | 8.0 | 0.00 | 0.13 | 0.05 | 88 | 1007.5 |
| 20260506101554 | 12 | 10 | 4.8 | 14.5 | 0.00 | 0.13 | 0.05 | 88 | 1007.3 |
| 20260506094600 | 12 | 251 | 0.0 | 3.2 | 0.00 | 0.18 | 0.05 | 87 | 1007.1 |
| 20260506093052 | 12 | 240 | 0.0 | 3.2 | 0.00 | 0.18 | 0.05 | 87 | 1007.1 |
| 20260506091551 | 12 | 157 | 0.0 | 4.8 | 0.00 | 0.18 | 0.05 | 87 | 1007.2 |
| 20260506090049 | 12 | 183 | 0.0 | 3.2 | 0.00 | 0.18 | 0.05 | 87 | 1007.1 |
| 20260506084616 | 12 | 288 | 0.0 | 4.8 | 0.00 | 0.18 | 0.05 | 87 | 1007.1 |
| 20260506083048 | 12 | 209 | 0.0 | 4.8 | 0.00 | 0.18 | 0.05 | 86 | 1007.5 |
| 20260506081554 | 12 | 266 | 1.6 | 6.4 | 0.00 | 0.18 | 0.05 | 86 | 1007.8 |
| 20260506073043 | 12 | 273 | 0.0 | 4.8 | 0.00 | 0.18 | 0.05 | 88 | 1008.3 |
| 20260506071541 | 12 | 232 | 0.0 | 0.0 | 0.00 | 0.18 | 0.05 | 88 | 1008.2 |
| 20260506061536 | 13 | 194 | 0.0 | 0.0 | 0.00 | 0.18 | 0.05 | 88 | 1008.7 |
| 20260506044535 | 13 | 183 | 0.0 | 9.7 | 0.05 | 0.18 | 0.05 | 82 | 1008.5 |
| 20260506043027 | 13 | 348 | 6.4 | 17.7 | 0.05 | 0.18 | 0.05 | 82 | 1008.5 |
| 20260506041522 | 14 | 345 | 14.5 | 22.5 | 0.00 | 0.13 | 0.00 | 81 | 1008.3 |
| 20260506040020 | 15 | 342 | 12.9 | 27.4 | 0.00 | 0.13 | 0.13 | 80 | 1008.3 |
| 20260506034521 | 16 | 333 | 14.5 | 25.7 | 0.00 | 0.13 | 0.13 | 75 | 1008.6 |
| 20260506033019 | 16 | 348 | 12.9 | 20.9 | 0.00 | 0.13 | 0.13 | 75 | 1008.6 |
| 20260506031518 | 16 | 325 | 4.8 | 16.1 | 0.00 | 0.13 | 0.13 | 75 | 1008.6 |
| 20260506030018 | 16 | 311 | 1.6 | 16.1 | 0.00 | 0.13 | 0.13 | 75 | 1008.6 |
| 20260506024517 | 17 | 345 | 9.7 | 24.1 | 0.00 | 0.13 | 0.13 | 76 | 1008.2 |
| 20260506023027 | 18 | 291 | 4.8 | 19.3 | 0.00 | 0.13 | 0.13 | 73 | 1008.2 |
| 20260506021521 | 18 | 339 | 6.4 | 12.9 | 0.00 | 0.13 | 0.13 | 72 | 1008.1 |
| 20260506020014 | 18 | 242 | 0.0 | 6.4 | 0.00 | 0.13 | 0.13 | 70 | 1007.9 |
| 20260506014513 | 19 | 227 | 4.8 | 6.4 | 0.00 | 0.13 | 0.13 | 69 | 1007.6 |
| 20260506013014 | 19 | 182 | 0.0 | 4.8 | 0.00 | 0.13 | 0.13 | 67 | 1007.3 |
| 20260506011510 | 20 | 230 | 1.6 | 9.7 | 0.00 | 0.13 | 0.13 | 65 | 1007.0 |
| 20260506010013 | 20 | 179 | 6.4 | 12.9 | 0.00 | 0.13 | 0.13 | 64 | 1006.7 |
| 20260506004511 | 20 | 201 | 6.4 | 14.5 | 0.00 | 0.13 | 0.13 | 65 | 1006.7 |
| 20260506003010 | 19 | 216 | 6.4 | 12.9 | 0.00 | 0.13 | 0.13 | 67 | 1006.7 |
| 20260506001507 | 18 | 165 | 4.8 | 8.0 | 0.00 | 0.13 | 0.13 | 70 | 1006.3 |
| 20260506000007 | 19 | 173 | 3.2 | 8.0 | 0.00 | 0.13 | 0.13 | 67 | 1006.0 |
| 20260505234507 | 20 | 227 | 3.2 | 12.9 | 0.00 | 0.13 | 0.13 | 62 | 1006.0 |
| 20260505233008 | 20 | 206 | 4.8 | 11.3 | 0.00 | 0.13 | 0.13 | 62 | 1005.9 |
| 20260505231507 | 20 | 230 | 8.0 | 16.1 | 0.00 | 0.13 | 0.13 | 63 | 1005.5 |
| 20260505230010 | 20 | 186 | 12.9 | 24.1 | 0.00 | 0.13 | 0.13 | 63 | 1005.4 |
| 20260505224505 | 20 | 198 | 11.3 | 22.5 | 0.00 | 0.13 | 0.13 | 65 | 1005.1 |
| 20260505223005 | 19 | 246 | 9.7 | 19.3 | 0.00 | 0.13 | 0.13 | 68 | 1005.1 |
| 20260505221503 | 19 | 247 | 3.2 | 19.3 | 0.00 | 0.13 | 0.13 | 71 | 1005.7 |
| 20260505220002 | 19 | 140 | 16.1 | 27.4 | 0.00 | 0.13 | 0.13 | 72 | 1006.0 |
| 20260505214503 | 19 | 276 | 11.3 | 25.7 | 0.00 | 0.13 | 0.13 | 70 | 1005.6 |
| 20260505213004 | 19 | 218 | 8.0 | 29.0 | 0.00 | 0.13 | 0.13 | 70 | 1005.9 |
| 20260505211504 | 19 | 331 | 16.1 | 32.2 | 0.00 | 0.13 | 0.13 | 67 | 1004.8 |
| 20260505204600 | 23 | 348 | 19.3 | 29.0 | 0.00 | 0.13 | 0.13 | 54 | 1004.1 |
| 20260505203121 | 25 | 208 | 6.4 | 14.5 | 0.00 | 0.13 | 0.13 | 47 | 1003.1 |